Location: Cahas Mountain Overlook
(37.0833°N, 80.1000°W)
Time: 11:00:51
(UTC-04:00)

Vanguard 1 Rocket - Pass Details

Date: 26 January 2022
Orbit: 651 x 4224 km, 34.3° (Epoch: 21 May)

Event Time Altitude Azimuth Distance (km) Brightness Sun altitude
Rises 18:42:11 0° 284° (WNW) 6,437 12.9 -12.8°
Reaches altitude 10° 18:47:54 10° 275° (W) 4,755 12.3 -13.9°
Maximum altitude 18:57:14 27° 224° (SW) 2,471 10.2 -15.7°
Drops below altitude 10° 19:03:01 10° 168° (SSE) 2,846 9.9 -16.9°
Sets 19:05:31 0° 154° (SSE) 3,514 10.3 -17.4°
